QPF
0.01 0.00 0.00 0.00 0.00 0.00 0.00 0.00 0.00 0.00 0.00 0.00 0.00 0.00 0.00 0.00 0.00 0.00 0.00 0.00 0.00 0.00 0.00 0.00 0.00 0.00 0.00 0.00 0.00 0.00 0.00 0.00 0.00 0.00 0.00 0.00 0.00 0.00 0.00 0.00 0.00 0.00 0.00 0.00 0.00 0.00 0.00
0.00 0.01 0.01 0.01 0.00 0.00 0.00 0.00 0.00 0.00 0.00 0.00 0.00 0.00 0.00 0.00 0.00 0.00 0.00 0.00 0.00 0.00 0.00 0.00 0.00 0.00 0.00 0.00 0.00 0.00 0.00 0.00 0.00 0.00 0.00 0.00 0.00 0.00 0.00 0.00 0.00 0.00 0.00 0.00 0.00 0.00 0.00
0.00 0.00 0.00 0.00 0.00 0.00 0.00 0.00 0.00 0.00 0.00 0.00 0.00 0.00 0.00 0.00 0.00 0.00 0.00 0.00 0.00 0.00 0.00 0.00 0.00 0.00 0.00 0.00 0.00 0.00 0.00 0.00 0.00 0.00 0.00 0.00 0.00 0.00 0.00 0.00 0.00 0.00 0.00 0.00 0.00 0.00 0.00
0.00 0.00 0.00 0.00 0.00 0.00 0.00 0.00 0.00 0.00 0.00 0.00 0.00 0.00 0.00 0.00 0.00 0.00 0.00 0.00 0.00 0.00 0.00 0.00 0.00 0.00 0.00 0.00 0.00 0.00 0.00 0.00 0.00 0.00 0.00 0.00 0.00 0.00 0.00 0.00 0.00 0.00 0.00 0.00 0.00 0.00 0.00
0.00 0.00 0.00 0.00 0.00 0.00 0.00 0.00 0.00 0.00 0.00 0.00 0.00 0.00 0.00 0.00 0.00 0.00 0.00 0.00 0.00 0.00 0.00 0.00 0.00 0.00 0.00 0.00 0.00 0.00 0.00 0.00 0.00 0.00 0.00 0.00 0.00 0.00 0.00 0.00 0.00 0.00 0.00 0.00 0.00 0.00 0.00
0.01 0.00 0.00 0.00 0.00 0.00 0.00 0.00 0.00 0.00 0.00 0.00 0.00 0.00 0.00 0.00 0.00 0.00 0.00 0.00 0.00 0.00 0.00 0.00 0.00 0.00 0.00 0.00 0.00 0.00 0.00 0.00 0.00 0.00 0.00 0.00 0.00 0.00 0.00 0.00 0.00 0.00 0.00 0.00 0.00 0.00 0.00
0.00 0.01 0.00 0.00 0.00 0.00 0.00 0.00 0.00 0.00 0.00 0.00 0.00 0.00 0.00 0.00 0.00 0.00 0.00 0.00 0.00 0.00 0.00 0.00 0.00 0.00 0.00 0.00 0.00 0.00 0.00 0.00 0.00 0.00 0.00 0.00 0.00 0.00 0.00 0.00 0.00 0.00 0.00 0.00 0.00 0.00 0.00
0.00 0.01 0.01 0.01 0.01 0.00 0.00 0.00 0.00 0.00 0.00 0.00 0.00 0.00 0.00 0.00 0.00 0.00 0.00 0.00 0.00 0.00 0.00 0.00 0.00 0.00 0.00 0.00 0.00 0.00 0.00 0.00 0.00 0.00 0.00 0.00 0.00 0.00 0.00 0.00 0.00 0.00 0.00 0.00 0.00 0.00 0.00
0.01 0.01 0.01 0.01 0.01 0.00 0.00 0.00 0.00 0.00 0.00 0.00 0.00 0.00 0.00 0.00 0.00 0.00 0.00 0.00 0.00 0.00 0.00 0.00 0.00 0.00 0.00 0.00 0.00 0.00 0.00 0.00 0.00 0.00 0.00 0.00 0.00 0.00 0.00 0.00 0.00 0.00 0.00 0.00 0.00 0.00 0.00
0.02 0.02 0.01 0.01 0.01 0.00 0.00 0.00 0.00 0.00 0.00 0.00 0.00 0.00 0.00 0.00 0.00 0.00 0.00 0.00 0.00 0.00 0.00 0.00 0.00 0.00 0.00 0.00 0.00 0.00 0.00 0.00 0.00 0.00 0.00 0.00 0.00 0.00 0.00 0.00 0.00 0.00 0.00 0.00 0.00 0.00 0.00
0.01 0.01 0.01 0.01 0.01 0.01 0.01 0.01 0.00 0.00 0.00 0.00 0.00 0.00 0.00 0.00 0.00 0.00 0.00 0.00 0.00 0.00 0.00 0.00 0.00 0.00 0.00 0.00 0.00 0.00 0.00 0.00 0.00 0.00 0.00 0.00 0.00 0.00 0.00 0.00 0.00 0.00 0.00 0.00 0.00 0.00 0.00
0.02 0.02 0.03 0.02 0.01 0.01 0.00 0.00 0.00 0.00 0.00 0.00 0.00 0.00 0.01 0.00 0.00 0.00 0.00 0.00 0.00 0.00 0.00 0.00 0.00 0.00 0.00 0.00 0.00 0.00 0.00 0.00 0.00 0.00 0.00 0.00 0.00 0.00 0.00 0.00 0.00 0.00 0.00 0.00 0.00 0.00 0.00
0.03 0.03 0.02 0.01 0.00 0.00 0.00 0.00 0.00 0.00 0.00 0.00 0.00 0.00 0.02 0.00 0.00 0.00 0.00 0.00 0.01 0.00 0.00 0.00 0.00 0.00 0.00 0.00 0.00 0.00 0.00 0.00 0.00 0.00 0.00 0.00 0.00 0.00 0.00 0.00 0.00 0.00 0.00 0.00 0.00 0.00 0.00
0.01 0.01 0.01 0.01 0.01 0.01 0.01 0.01 0.00 0.00 0.00 0.00 0.00 0.01 0.01 0.00 0.00 0.00 0.00 0.00 0.00 0.00 0.00 0.00 0.00 0.00 0.00 0.00 0.00 0.00 0.00 0.00 0.00 0.00 0.00 0.00 0.00 0.00 0.00 0.00 0.00 0.00 0.00 0.00 0.00 0.00 0.00
0.03 0.03 0.02 0.02 0.01 0.01 0.00 0.00 0.00 0.00 0.00 0.00 0.02 0.01 0.01 0.00 0.00 0.00 0.00 0.00 0.00 0.00 0.00 0.00 0.00 0.00 0.00 0.00 0.00 0.00 0.00 0.00 0.00 0.00 0.00 0.00 0.00 0.00 0.00 0.00 0.00 0.00 0.00 0.00 0.00 0.00 0.00
0.01 0.01 0.01 0.01 0.01 0.01 0.00 0.01 0.00 0.00 0.00 0.01 0.03 0.01 0.00 0.00 0.00 0.00 0.00 0.00 0.00 0.00 0.00 0.00 0.00 0.00 0.00 0.00 0.00 0.00 0.00 0.00 0.00 0.00 0.00 0.00 0.00 0.00 0.00 0.00 0.00 0.00 0.00 0.00 0.00 0.00 0.00
0.01 0.01 0.01 0.01 0.01 0.01 0.01 0.01 0.01 0.01 0.00 0.06 0.06 0.04 0.00 0.00 0.04 0.02 0.00 0.00 0.00 0.00 0.00 0.00 0.00 0.00 0.00 0.00 0.00 0.00 0.00 0.00 0.00 0.00 0.00 0.00 0.00 0.00 0.00 0.00 0.00 0.00 0.00 0.00 0.00 0.00 0.00
0.01 0.00 0.00 0.00 0.00 0.00 0.00 0.00 0.00 0.01 0.03 0.08 0.06 0.02 0.01 0.00 0.02 0.01 0.00 0.00 0.00 0.00 0.00 0.00 0.00 0.00 0.00 0.00 0.00 0.00 0.00 0.00 0.00 0.00 0.00 0.00 0.00 0.00 0.00 0.00 0.00 0.00 0.00 0.00 0.00 0.00 0.00
0.00 0.00 0.00 0.00 0.00 0.00 0.00 0.00 0.00 0.01 0.04 0.06 0.04 0.01 0.01 0.00 0.00 0.00 0.00 0.00 0.00 0.00 0.00 0.00 0.00 0.00 0.00 0.00 0.00 0.00 0.00 0.00 0.00 0.00 0.00 0.00 0.00 0.00 0.00 0.00 0.00 0.00 0.00 0.00 0.00 0.00 0.00
0.00 0.00 0.00 0.00 0.00 0.00 0.00 0.00 0.01 0.01 0.03 0.05 0.01 0.01 0.01 0.01 0.00 0.00 0.00 0.01 0.00 0.00 0.00 0.00 0.00 0.00 0.00 0.00 0.00 0.00 0.00 0.00 0.00 0.00 0.00 0.00 0.00 0.00 0.00 0.00 0.00 0.00 0.00 0.00 0.00 0.00 0.00
0.00 0.00 0.00 0.00 0.00 0.00 0.00 0.01 0.01 0.01 0.03 0.04 0.01 0.00 0.00 0.00 0.00 0.00 0.00 0.00 0.00 0.00 0.00 0.00 0.00 0.00 0.00 0.00 0.00 0.00 0.00 0.00 0.00 0.00 0.00 0.00 0.00 0.00 0.00 0.00 0.00 0.00 0.00 0.00 0.00 0.00 0.00
0.01 0.01 0.01 0.02 0.01 0.01 0.01 0.01 0.01 0.02 0.05 0.03 0.00 0.00 0.01 0.00 0.00 0.00 0.00 0.00 0.00 0.00 0.00 0.00 0.00 0.00 0.00 0.00 0.00 0.00 0.00 0.00 0.00 0.00 0.00 0.01 0.00 0.00 0.00 0.00 0.00 0.00 0.00 0.00 0.00 0.00 0.00
0.02 0.02 0.02 0.02 0.02 0.02 0.02 0.02 0.02 0.03 0.05 0.01 0.00 0.00 0.00 0.00 0.00 0.00 0.00 0.00 0.00 0.00 0.00 0.00 0.00 0.00 0.00 0.00 0.00 0.00 0.00 0.00 0.02 0.02 0.00 0.00 0.00 0.00 0.00 0.00 0.00 0.00 0.00 0.00 0.00 0.00 0.00
0.02 0.02 0.03 0.03 0.02 0.02 0.02 0.02 0.03 0.03 0.03 0.01 0.00 0.00 0.00 0.00 0.00 0.00 0.00 0.00 0.00 0.00 0.00 0.00 0.00 0.00 0.00 0.00 0.00 0.00 0.00 0.00 0.00 0.01 0.00 0.00 0.00 0.00 0.00 0.00 0.00 0.00 0.00 0.00 0.00 0.00 0.00
0.02 0.02 0.02 0.02 0.03 0.04 0.03 0.03 0.03 0.03 0.04 0.01 0.00 0.00 0.00 0.00 0.00 0.00 0.00 0.00 0.00 0.00 0.00 0.00 0.00 0.00 0.00 0.00 0.00 0.00 0.00 0.00 0.00 0.00 0.00 0.00 0.00 0.00 0.00 0.00 0.00 0.00 0.00 0.00 0.00 0.00 0.00
0.01 0.01 0.01 0.00 0.00 0.01 0.02 0.04 0.04 0.05 0.05 0.02 0.00 0.01 0.00 0.00 0.00 0.00 0.00 0.00 0.00 0.00 0.00 0.00 0.00 0.00 0.00 0.00 0.00 0.00 0.00 0.00 0.00 0.01 0.02 0.00 0.00 0.00 0.01 0.00 0.00 0.00 0.00 0.00 0.00 0.00 0.00
0.00 0.00 0.00 0.00 0.00 0.00 0.00 0.01 0.02 0.04 0.04 0.03 0.01 0.01 0.01 0.00 0.00 0.00 0.00 0.00 0.00 0.00 0.00 0.00 0.00 0.00 0.00 0.00 0.00 0.00 0.00 0.00 0.00 0.01 0.01 0.00 0.00 0.00 0.00 0.00 0.00 0.00 0.00 0.00 0.00 0.00 0.00
0.00 0.00 0.00 0.00 0.00 0.01 0.01 0.00 0.01 0.02 0.03 0.04 0.01 0.01 0.01 0.00 0.00 0.00 0.00 0.00 0.00 0.00 0.00 0.00 0.00 0.00 0.00 0.00 0.00 0.00 0.00 0.00 0.00 0.00 0.00 0.00 0.00 0.00 0.00 0.00 0.00 0.00 0.01 0.00 0.00 0.00 0.00
0.00 0.00 0.01 0.01 0.01 0.01 0.01 0.01 0.01 0.01 0.01 0.03 0.01 0.01 0.00 0.00 0.01 0.00 0.00 0.00 0.00 0.00 0.00 0.00 0.00 0.00 0.00 0.00 0.00 0.00 0.00 0.00 0.00 0.00 0.00 0.00 0.00 0.00 0.00 0.00 0.00 0.00 0.01 0.02 0.00 0.00 0.00
MSLP
1023.36 1022.92 1022.77 1022.67 1022.84 1022.80 1022.69 1022.62 1022.55 1022.46 1022.45 1022.27 1021.97 1021.68 1021.26 1020.88 1020.17 1019.72 1019.05 1018.68 1018.38 1018.13 1017.85 1017.68 1017.26 1016.90 1016.09 1015.16 1012.05 1009.60 1009.58 1009.84 1009.84 1009.83 1009.58 1009.82 1009.90 1010.27 1010.61 1010.64 1010.80 1010.65 1009.90 1009.45 1009.16 1008.70 1008.57
1023.17 1022.97 1022.91 1022.56 1022.52 1022.47 1022.35 1022.24 1022.23 1022.15 1022.22 1022.14 1021.87 1021.62 1020.98 1020.77 1020.07 1019.42 1018.90 1018.34 1018.05 1017.73 1017.53 1017.30 1017.09 1016.96 1016.30 1014.61 1010.08 1009.79 1009.53 1009.90 1009.93 1009.77 1009.52 1009.71 1009.39 1009.70 1010.18 1010.23 1010.51 1010.14 1009.89 1009.30 1008.62 1008.17 1008.16
1023.00 1022.77 1022.77 1022.59 1022.36 1022.19 1022.32 1022.34 1021.84 1021.88 1021.74 1021.84 1021.69 1021.30 1021.14 1020.32 1020.13 1019.29 1018.59 1018.06 1017.61 1017.13 1017.06 1016.86 1016.82 1016.86 1015.89 1012.17 1009.87 1009.89 1010.10 1009.93 1009.76 1009.60 1009.43 1009.41 1009.47 1009.44 1010.08 1010.14 1009.82 1010.03 1009.88 1009.08 1008.11 1007.83 1007.81
1022.48 1022.70 1022.44 1022.39 1022.31 1022.17 1021.80 1022.15 1021.98 1021.60 1021.42 1021.40 1021.43 1021.14 1020.74 1020.16 1019.76 1019.21 1018.33 1017.60 1016.89 1016.32 1016.16 1016.24 1016.40 1016.31 1014.32 1010.39 1009.84 1009.84 1009.78 1009.53 1009.42 1009.64 1009.43 1009.20 1009.53 1009.58 1009.89 1009.96 1009.92 1010.27 1010.08 1009.61 1007.85 1007.98 1007.65
1022.21 1022.03 1022.08 1022.22 1022.12 1021.80 1021.84 1021.69 1021.70 1021.50 1021.29 1021.11 1021.17 1020.96 1020.47 1020.07 1019.47 1018.87 1017.91 1016.79 1015.64 1015.08 1015.04 1015.45 1016.11 1015.82 1012.72 1009.99 1009.68 1008.41 1008.85 1008.86 1008.80 1009.03 1008.96 1009.03 1009.45 1009.67 1009.86 1010.43 1010.85 1010.70 1010.67 1009.99 1008.63 1007.91 1008.12
1021.96 1021.72 1021.69 1021.79 1021.76 1021.71 1021.48 1021.41 1021.46 1021.18 1021.07 1021.01 1020.86 1020.84 1020.20 1019.69 1019.36 1018.68 1017.60 1016.26 1014.87 1014.68 1014.82 1015.22 1015.28 1015.62 1011.55 1009.62 1008.62 1008.05 1008.23 1008.33 1008.45 1008.54 1008.96 1009.08 1009.44 1009.67 1010.03 1010.77 1010.77 1010.83 1010.76 1010.25 1009.40 1008.08 1008.27
1021.65 1021.52 1021.41 1021.32 1021.30 1021.41 1021.26 1021.07 1021.18 1020.91 1020.85 1020.67 1020.69 1020.58 1020.06 1019.53 1019.14 1018.46 1017.63 1016.17 1015.68 1014.92 1014.90 1014.28 1013.90 1012.73 1010.53 1009.41 1008.27 1007.79 1008.04 1008.32 1008.42 1008.44 1008.77 1008.94 1009.52 1008.92 1009.15 1009.70 1010.14 1010.44 1010.45 1010.34 1008.99 1007.60 1008.58
1021.18 1021.04 1021.12 1020.87 1020.79 1020.93 1020.98 1020.80 1020.94 1020.68 1020.47 1020.35 1020.57 1020.44 1020.02 1019.50 1018.95 1018.42 1018.19 1018.06 1017.79 1017.86 1015.50 1013.57 1012.47 1011.78 1010.56 1010.45 1010.05 1007.63 1007.86 1008.33 1008.40 1008.48 1008.71 1009.14 1008.15 1008.53 1009.11 1009.53 1009.89 1010.25 1010.22 1009.74 1008.80 1007.73 1008.04
1020.61 1020.44 1020.56 1020.49 1020.48 1020.57 1020.57 1020.54 1020.65 1020.53 1020.32 1020.28 1020.45 1020.24 1019.99 1019.40 1018.97 1018.54 1018.71 1018.24 1017.66 1017.45 1016.23 1011.57 1010.24 1009.35 1008.73 1009.09 1008.58 1007.42 1008.21 1007.72 1007.94 1008.43 1008.52 1008.31 1007.61 1007.42 1008.27 1008.89 1009.38 1009.48 1009.52 1009.02 1009.16 1007.97 1007.73
1020.08 1020.05 1020.05 1020.03 1020.14 1020.13 1020.21 1020.22 1020.26 1020.37 1020.01 1020.13 1020.27 1020.20 1019.95 1019.46 1019.16 1018.77 1018.38 1018.13 1017.58 1017.36 1015.88 1011.20 1009.26 1007.54 1007.30 1007.67 1007.70 1006.56 1006.74 1007.09 1007.35 1007.67 1008.34 1008.31 1007.33 1007.53 1007.71 1007.99 1008.44 1008.72 1008.05 1008.44 1008.71 1008.83 1008.15
1019.51 1019.38 1019.40 1019.51 1019.64 1019.71 1019.73 1019.92 1020.00 1019.95 1019.80 1019.84 1020.00 1020.01 1019.82 1019.63 1019.45 1018.99 1018.34 1017.77 1017.25 1017.01 1014.78 1009.50 1007.68 1006.60 1006.79 1007.21 1006.28 1005.39 1005.59 1006.36 1006.54 1007.09 1007.75 1006.94 1006.69 1006.83 1007.18 1006.53 1007.49 1007.46 1007.39 1008.06 1008.36 1008.72 1008.29
1018.88 1018.82 1018.78 1018.75 1018.99 1019.20 1019.43 1019.55 1019.58 1019.62 1019.54 1019.66 1019.79 1019.79 1019.67 1019.50 1019.64 1018.84 1018.35 1017.66 1017.21 1016.79 1012.84 1008.75 1007.47 1007.46 1007.61 1007.24 1006.29 1005.65 1005.99 1006.11 1006.20 1006.86 1006.83 1006.69 1006.10 1006.11 1005.59 1005.74 1006.61 1006.69 1007.46 1007.84 1008.06 1008.48 1008.37
1018.12 1018.11 1018.17 1018.31 1018.44 1018.66 1018.90 1018.99 1019.08 1019.21 1019.26 1019.32 1019.44 1019.49 1019.47 1019.35 1019.39 1018.95 1018.45 1018.10 1017.60 1015.71 1011.48 1009.44 1008.67 1008.25 1007.70 1007.41 1006.87 1006.18 1006.31 1006.77 1006.32 1006.96 1006.54 1006.73 1005.97 1005.75 1005.31 1005.51 1006.02 1006.78 1007.65 1008.69 1008.82 1008.95 1008.29
1017.30 1017.27 1017.49 1017.58 1017.76 1017.99 1018.19 1018.38 1018.53 1018.75 1018.85 1018.86 1018.98 1019.05 1019.06 1018.96 1019.09 1019.15 1019.04 1018.83 1017.03 1013.32 1011.80 1010.12 1009.76 1008.89 1008.60 1008.33 1007.84 1007.23 1006.88 1007.18 1006.95 1006.63 1006.58 1006.64 1006.01 1005.47 1004.86 1004.71 1004.97 1005.79 1006.76 1007.97 1008.32 1009.00 1008.60
1016.53 1016.55 1016.66 1016.83 1017.05 1017.23 1017.51 1017.79 1017.98 1018.27 1018.37 1018.53 1018.63 1018.98 1019.08 1018.55 1019.15 1019.54 1019.67 1018.49 1014.83 1013.32 1012.33 1011.79 1010.65 1010.04 1009.66 1009.53 1009.30 1008.54 1008.39 1007.94 1007.26 1007.09 1007.08 1006.38 1005.64 1004.21 1003.47 1003.88 1004.62 1004.89 1005.62 1006.05 1007.39 1008.34 1008.57
1015.56 1015.68 1015.84 1016.00 1016.21 1016.44 1016.76 1017.05 1017.37 1017.60 1017.83 1018.05 1018.49 1018.49 1018.04 1018.08 1018.80 1019.50 1019.44 1016.84 1014.86 1013.53 1013.04 1012.68 1012.42 1011.77 1011.37 1011.04 1010.38 1009.93 1009.49 1008.81 1008.06 1007.83 1007.03 1006.15 1005.58 1004.02 1003.29 1003.30 1003.17 1003.54 1004.56 1005.93 1006.94 1008.00 1008.11
1014.78 1014.84 1014.97 1015.12 1015.30 1015.57 1015.90 1016.22 1016.63 1016.96 1017.20 1017.31 1018.15 1017.61 1016.74 1017.30 1018.36 1018.77 1017.55 1016.36 1014.87 1014.19 1013.79 1013.67 1013.19 1012.83 1012.45 1012.16 1011.63 1010.98 1010.28 1009.43 1009.07 1008.53 1008.21 1007.43 1006.47 1005.02 1003.76 1002.92 1002.75 1003.42 1003.97 1004.70 1005.49 1006.65 1007.04
1013.80 1013.92 1014.00 1014.15 1014.32 1014.63 1014.96 1015.36 1015.80 1016.17 1016.56 1016.97 1017.08 1016.63 1016.17 1016.93 1017.93 1016.91 1015.94 1015.80 1015.32 1014.32 1013.85 1014.06 1013.85 1013.85 1013.56 1013.13 1012.40 1011.81 1010.76 1010.09 1009.49 1009.44 1009.32 1008.54 1006.96 1005.47 1003.69 1002.95 1002.43 1002.32 1002.76 1003.69 1004.80 1006.06 1006.21
1012.65 1012.71 1012.80 1012.96 1013.19 1013.49 1013.89 1014.31 1014.84 1015.21 1015.68 1016.21 1015.94 1015.81 1015.80 1015.93 1015.72 1015.30 1015.47 1015.21 1015.24 1014.83 1014.29 1014.25 1014.06 1013.87 1013.64 1013.39 1013.31 1011.78 1011.09 1010.11 1009.91 1009.88 1010.29 1010.22 1008.16 1006.67 1004.73 1003.44 1002.04 1002.41 1002.65 1003.16 1003.85 1004.49 1004.66
1011.30 1011.32 1011.42 1011.62 1011.90 1012.18 1012.61 1013.13 1013.68 1014.18 1014.66 1015.80 1015.64 1015.07 1014.72 1014.25 1013.59 1013.99 1014.65 1014.39 1014.65 1014.46 1014.59 1014.41 1014.49 1014.18 1014.13 1013.81 1013.22 1012.37 1011.55 1010.67 1010.27 1010.41 1010.60 1010.64 1009.01 1007.43 1005.21 1003.42 1002.69 1002.49 1002.41 1002.78 1003.24 1003.72 1003.69
1009.80 1009.80 1009.88 1010.08 1010.39 1010.73 1011.23 1011.81 1012.41 1012.98 1013.59 1014.76 1014.10 1013.29 1012.72 1012.77 1012.58 1013.29 1013.63 1013.24 1013.72 1013.72 1013.76 1013.88 1014.15 1014.11 1014.41 1014.00 1013.14 1012.33 1011.67 1011.17 1010.30 1010.27 1010.84 1010.89 1009.11 1007.09 1004.85 1003.97 1003.00 1002.37 1002.18 1002.31 1002.63 1002.79 1002.35
1008.10 1008.10 1008.15 1008.38 1008.68 1009.10 1009.60 1010.20 1010.85 1011.52 1012.34 1012.78 1012.30 1012.19 1012.17 1011.84 1011.94 1012.56 1012.58 1012.13 1012.35 1012.70 1012.92 1013.02 1013.40 1013.23 1013.35 1013.30 1012.75 1011.81 1011.17 1010.86 1010.51 1010.43 1010.60 1011.33 1009.53 1007.51 1004.67 1003.35 1002.77 1002.18 1001.89 1001.69 1001.68 1002.01 1001.28
1006.16 1006.12 1006.21 1006.49 1006.90 1007.33 1007.85 1008.46 1009.12 1009.88 1010.98 1010.40 1011.00 1011.24 1010.95 1010.56 1011.08 1011.40 1010.72 1011.07 1011.20 1012.24 1011.98 1012.04 1012.22 1012.59 1012.60 1011.37 1011.38 1011.23 1010.88 1010.74 1010.48 1010.36 1010.62 1011.29 1010.85 1008.87 1005.51 1003.92 1003.10 1002.67 1000.80 1000.83 1000.78 1001.39 1001.69
1004.24 1004.21 1004.30 1004.57 1004.96 1005.43 1006.00 1006.62 1007.28 1008.00 1008.80 1009.30 1009.38 1009.96 1010.36 1009.53 1009.77 1009.56 1010.09 1010.62 1010.68 1010.93 1011.21 1011.14 1011.26 1011.79 1009.94 1010.77 1010.87 1010.74 1010.61 1010.30 1009.98 1010.04 1010.13 1010.45 1010.85 1009.55 1006.69 1004.73 1003.83 1001.38 1000.85 1000.86 1000.68 1000.41 1000.59
1002.28 1002.22 1002.14 1002.55 1003.07 1003.61 1004.22 1004.89 1005.57 1006.32 1007.04 1007.92 1008.33 1008.34 1008.77 1008.55 1008.88 1009.03 1009.18 1009.49 1010.29 1010.47 1010.41 1010.42 1010.40 1010.12 1010.54 1010.86 1011.08 1010.54 1010.12 1009.83 1009.19 1008.73 1008.69 1008.65 1009.78 1009.10 1007.24 1005.40 1003.53 1001.79 1000.77 1000.62 1000.67 999.59 999.54
1000.65 1000.76 1000.96 1001.30 1001.72 1002.10 1002.65 1003.22 1003.95 1004.70 1005.54 1006.58 1007.02 1007.42 1007.90 1008.01 1006.74 1008.06 1008.32 1008.61 1008.98 1009.62 1009.86 1009.36 1009.46 1010.00 1010.87 1011.44 1011.57 1010.84 1010.20 1009.29 1008.22 1007.27 1007.32 1008.06 1008.57 1009.00 1007.79 1006.08 1003.73 1001.61 1000.01 999.41 999.98 999.60 998.13
999.45 999.63 999.85 1000.21 1000.57 1001.00 1001.45 1001.99 1002.65 1003.33 1004.18 1005.09 1005.59 1006.71 1007.12 1006.66 1006.44 1006.57 1006.60 1007.42 1008.10 1008.60 1008.76 1008.70 1008.99 1009.80 1010.39 1011.13 1011.22 1010.89 1010.23 1009.13 1008.50 1007.85 1007.70 1007.83 1007.96 1008.04 1007.46 1006.06 1003.49 1001.19 1000.06 999.97 1001.11 999.80 997.92
998.12 998.27 998.48 998.80 999.18 999.65 1000.24 1000.88 1001.50 1002.20 1002.97 1003.90 1004.53 1005.27 1005.81 1005.88 1005.77 1005.52 1005.67 1005.92 1006.74 1007.31 1007.88 1007.97 1008.55 1008.70 1009.87 1010.53 1010.54 1010.31 1009.74 1008.77 1008.19 1007.72 1007.00 1007.05 1006.99 1007.19 1006.02 1005.40 1003.80 1001.54 1000.32 1000.64 1000.57 999.47 998.60
996.55 996.65 996.87 997.19 997.61 998.17 998.78 999.51 1000.36 1001.16 1001.91 1003.01 1003.52 1004.23 1005.42 1005.83 1005.40 1005.11 1004.95 1004.66 1004.55 1005.08 1006.13 1007.13 1007.22 1007.46 1008.02 1008.73 1009.10 1009.03 1009.09 1008.86 1007.64 1007.04 1006.24 1006.22 1005.70 1005.74 1005.74 1005.26 1003.48 1001.57 1000.72 1000.50 1000.32 1000.03 998.84
Thickness
5551 5556 5559 5560 5557 5557 5558 5558 5559 5560 5561 5563 5567 5570 5575 5579 5588 5595 5602 5608 5613 5617 5622 5625 5630 5635 5643 5652 5672 5695 5701 5699 5699 5698 5695 5689 5682 5675 5663 5665 5664 5660 5671 5672 5667 5668 5666
5540 5542 5542 5547 5547 5547 5548 5549 5550 5551 5551 5553 5556 5559 5566 5568 5577 5585 5593 5600 5604 5610 5614 5618 5623 5626 5634 5642 5686 5687 5695 5691 5690 5693 5691 5687 5683 5680 5670 5666 5661 5665 5665 5665 5668 5670 5670
5527 5528 5528 5531 5534 5536 5535 5537 5543 5543 5545 5544 5546 5551 5553 5562 5564 5574 5583 5591 5596 5604 5606 5612 5615 5618 5628 5658 5680 5683 5683 5684 5687 5687 5684 5685 5683 5679 5670 5663 5671 5666 5657 5661 5670 5672 5670
5517 5514 5517 5519 5520 5522 5528 5524 5527 5533 5536 5536 5537 5541 5546 5552 5557 5562 5574 5583 5591 5599 5603 5606 5608 5613 5630 5669 5672 5676 5676 5679 5681 5680 5681 5682 5680 5673 5668 5668 5663 5655 5655 5642 5671 5668 5671
5503 5505 5504 5504 5506 5512 5512 5514 5516 5520 5524 5527 5527 5531 5537 5542 5549 5556 5566 5577 5589 5597 5601 5602 5600 5606 5632 5662 5662 5677 5676 5675 5675 5675 5678 5679 5674 5665 5664 5649 5637 5641 5630 5637 5652 5668 5663
5491 5493 5493 5493 5495 5497 5501 5502 5503 5509 5513 5515 5519 5520 5528 5534 5540 5549 5559 5572 5584 5588 5591 5592 5596 5597 5635 5650 5664 5671 5671 5672 5668 5668 5665 5664 5657 5651 5645 5637 5622 5627 5631 5639 5644 5660 5658
5481 5481 5482 5483 5485 5484 5487 5491 5492 5498 5502 5507 5508 5512 5519 5526 5532 5541 5552 5565 5570 5580 5579 5592 5600 5612 5633 5648 5659 5661 5663 5659 5661 5659 5647 5654 5640 5649 5653 5645 5647 5643 5639 5631 5647 5666 5651
5472 5473 5471 5474 5475 5475 5477 5480 5481 5488 5494 5497 5498 5504 5511 5517 5525 5533 5539 5541 5545 5544 5566 5590 5602 5608 5624 5624 5625 5651 5654 5644 5644 5640 5646 5641 5646 5658 5653 5645 5642 5636 5633 5635 5646 5659 5653
5462 5464 5464 5465 5465 5465 5466 5471 5473 5477 5483 5487 5489 5495 5501 5508 5516 5523 5524 5531 5538 5542 5550 5602 5611 5620 5627 5622 5628 5641 5638 5644 5639 5630 5634 5637 5655 5664 5653 5645 5639 5636 5633 5638 5633 5649 5658
5450 5451 5453 5454 5455 5456 5457 5459 5463 5466 5473 5476 5478 5484 5490 5497 5507 5512 5518 5523 5531 5536 5539 5593 5607 5621 5627 5626 5618 5647 5646 5644 5637 5633 5631 5627 5656 5651 5645 5645 5643 5630 5652 5646 5641 5632 5629
5433 5435 5438 5441 5442 5445 5448 5448 5451 5455 5461 5465 5468 5473 5480 5485 5491 5499 5511 5517 5525 5531 5534 5600 5611 5625 5621 5617 5630 5643 5650 5638 5633 5633 5630 5634 5644 5646 5636 5656 5646 5646 5653 5644 5640 5633 5635
5413 5416 5421 5425 5429 5432 5434 5437 5441 5444 5450 5453 5456 5461 5469 5475 5479 5490 5498 5507 5517 5526 5534 5585 5601 5597 5600 5608 5619 5629 5629 5637 5641 5631 5633 5633 5651 5644 5652 5661 5648 5659 5644 5643 5634 5628 5615
5394 5396 5401 5408 5412 5415 5419 5424 5428 5432 5437 5441 5444 5450 5458 5463 5465 5477 5485 5491 5503 5502 5569 5579 5574 5582 5591 5598 5606 5618 5615 5613 5614 5608 5616 5624 5634 5645 5652 5642 5645 5641 5629 5600 5602 5600 5611
5377 5379 5382 5389 5395 5401 5405 5410 5414 5419 5424 5429 5434 5440 5448 5452 5454 5460 5463 5472 5489 5542 5551 5562 5561 5567 5572 5579 5590 5595 5605 5598 5609 5616 5609 5606 5608 5631 5647 5645 5644 5634 5628 5598 5605 5597 5611
5366 5366 5368 5374 5380 5387 5393 5397 5401 5405 5410 5415 5420 5426 5434 5439 5438 5442 5442 5454 5509 5527 5535 5533 5544 5547 5552 5559 5569 5578 5580 5591 5600 5604 5599 5599 5606 5642 5653 5653 5648 5635 5619 5647 5617 5612 5600
5362 5359 5359 5364 5370 5377 5382 5387 5391 5394 5399 5403 5406 5414 5429 5424 5425 5426 5431 5466 5488 5512 5512 5515 5508 5525 5528 5534 5546 5556 5562 5577 5580 5587 5600 5605 5598 5632 5645 5647 5651 5642 5645 5617 5607 5595 5596
5357 5356 5356 5359 5364 5369 5374 5378 5381 5385 5389 5392 5393 5405 5424 5414 5412 5417 5432 5445 5475 5482 5487 5489 5499 5502 5512 5517 5527 5536 5545 5558 5564 5572 5576 5586 5590 5604 5629 5628 5630 5627 5625 5629 5628 5605 5598
5353 5353 5354 5356 5360 5364 5367 5370 5373 5376 5379 5379 5387 5397 5410 5401 5400 5421 5434 5440 5457 5468 5473 5470 5476 5477 5481 5494 5504 5515 5528 5541 5548 5554 5551 5562 5578 5585 5610 5630 5641 5643 5638 5634 5609 5606 5605
5348 5350 5352 5355 5357 5360 5362 5365 5367 5369 5370 5373 5381 5390 5393 5396 5403 5419 5428 5435 5436 5444 5454 5459 5464 5469 5475 5479 5476 5502 5513 5532 5538 5536 5533 5540 5555 5564 5589 5606 5627 5616 5625 5630 5624 5616 5605
5344 5347 5351 5353 5356 5358 5360 5361 5363 5366 5366 5360 5364 5381 5389 5395 5413 5419 5419 5424 5422 5437 5437 5445 5449 5457 5458 5463 5475 5484 5501 5516 5526 5527 5528 5528 5542 5554 5572 5599 5609 5607 5618 5623 5624 5600 5608
5343 5346 5350 5353 5355 5358 5359 5360 5361 5363 5362 5353 5363 5380 5399 5401 5411 5414 5417 5432 5423 5428 5441 5442 5443 5448 5447 5451 5465 5473 5490 5499 5519 5519 5520 5523 5535 5560 5584 5597 5603 5607 5610 5616 5616 5619 5614
5345 5348 5352 5355 5357 5359 5361 5361 5362 5363 5360 5356 5368 5382 5391 5398 5412 5406 5416 5427 5436 5439 5444 5446 5444 5452 5448 5446 5459 5476 5484 5488 5503 5510 5514 5508 5530 5547 5574 5592 5600 5600 5605 5612 5615 5614 5626
5353 5356 5358 5359 5360 5361 5363 5364 5365 5365 5360 5368 5371 5378 5390 5406 5408 5411 5424 5432 5440 5436 5445 5450 5451 5449 5448 5465 5468 5472 5476 5481 5491 5499 5488 5487 5504 5518 5559 5578 5581 5566 5602 5613 5618 5610 5612
5364 5366 5368 5369 5369 5369 5370 5371 5373 5373 5372 5376 5379 5383 5387 5406 5412 5421 5430 5428 5436 5440 5438 5449 5450 5445 5469 5467 5465 5468 5470 5476 5486 5489 5500 5490 5484 5505 5530 5553 5547 5596 5607 5609 5607 5615 5618
5373 5376 5380 5380 5380 5380 5381 5381 5382 5383 5384 5380 5383 5392 5396 5405 5413 5419 5428 5434 5430 5435 5442 5444 5450 5459 5457 5459 5455 5460 5459 5472 5480 5497 5505 5510 5490 5503 5530 5544 5566 5586 5599 5597 5590 5604 5622
5379 5381 5383 5384 5385 5386 5388 5388 5389 5390 5392 5387 5390 5394 5398 5401 5419 5425 5425 5430 5433 5432 5436 5447 5453 5453 5447 5443 5441 5453 5445 5472 5490 5505 5509 5501 5505 5499 5511 5536 5541 5575 5601 5611 5604 5584 5627
5378 5380 5382 5383 5385 5387 5389 5391 5392 5394 5395 5395 5395 5393 5396 5404 5419 5427 5431 5430 5436 5436 5437 5446 5448 5441 5444 5433 5439 5448 5452 5485 5472 5482 5486 5490 5494 5505 5518 5527 5543 5577 5592 5598 5563 5581 5626
5377 5379 5381 5383 5385 5387 5388 5390 5392 5394 5396 5396 5399 5400 5402 5404 5416 5429 5436 5437 5437 5440 5437 5446 5443 5443 5432 5428 5440 5443 5429 5465 5478 5491 5491 5493 5501 5504 5516 5524 5532 5571 5584 5580 5581 5601 5612
5373 5376 5378 5380 5383 5385 5387 5388 5389 5390 5393 5393 5398 5401 5396 5396 5411 5422 5431 5441 5450 5453 5446 5443 5449 5451 5447 5440 5439 5446 5438 5434 5475 5476 5496 5501 5511 5508 5520 5513 5539 5561 5575 5577 5579 5582 5599